NORTHEAST SUFFOLK  -  Winter Weather Advisory Winter Weather Advisory        NORTHERN NASSAU  -  Winter Weather Advisory Winter Weather Advisory        NORTHERN QUEENS  -  Winter Weather Advisory Winter Weather Advisory        NORTHWEST SUFFOLK  -  Winter Weather Advisory Winter Weather Advisory        SOUTHEAST SUFFOLK  -  Winter Weather Advisory Winter Weather Advisory        SOUTHERN NASSAU  -  Winter Weather Advisory Winter Weather Advisory        SOUTHERN QUEENS  -  Winter Weather Advisory Winter Weather Advisory        SOUTHWEST SUFFOLK  -  Winter Weather Advisory Winter Weather Advisory      

Active alerts

Northern Queens
  Details for Northern Queens Winter Weather Advisory
Southern Queens
  Details for Southern Queens Winter Weather Advisory
Northern Nassau
  Details for Northern Nassau Winter Weather Advisory
Southern Nassau
  Details for Southern Nassau Winter Weather Advisory
Northwest Suffolk
  Details for Northwest Suffolk Winter Weather Advisory
Southwest Suffolk
  Details for Southwest Suffolk Winter Weather Advisory
Northeast Suffolk
  Details for Northeast Suffolk Winter Weather Advisory
Southeast Suffolk
  Details for Southeast Suffolk Winter Weather Advisory


WXM80 ListenWXM80 Stop

You find our weather info also at:

UK Metoffice

WeatherCloud

Weather Underground

Northeastern Weather Network

AWEKAS

Citizen Weather Observer Program (CWOP)

HAMweather, WeatherForYou, PWS Weather


Weather Underground History page Text

Daily Summary for February 6, 2018 Units:  Metric    English   Both
« Previous Day
Next Day »
Daily Weekly Monthly Yearly Custom
  High: Low: Average:
Temperature: 3.3 °C -4.2 °C -1.6 °C
Dew Point: -3.1 °C -9.9 °C -6 °C
Humidity: 88 % 60 % 72 %
Wind Speed: 10.3 km/h 0 km/h 1 km/h
Wind Gust: 14.8 km/h - -
Wind:- - SE
Pressure: 1024.6 hPa 1017.2 hPa -
Precipitation: 0 mm    
Historical Graphs
 
 
Tabular Data for February 6, 2018
Time Temperature Dew Point Pressure Wind Wind Speed Wind Gust Humidity Rainfall Rate (Hourly)
00:02 -4 °C -9.8 °C 1017.5 hPa West 2.7 km/h 7.4 km/h 64 % 0 mm
00:07 -4 °C -9.8 °C 1017.8 hPa West 0.3 km/h 1.9 km/h 64 % 0 mm
00:12 -4.1 °C -9.9 °C 1017.8 hPa West 0.5 km/h 3.2 km/h 64 % 0 mm
00:17 -4.1 °C -9.7 °C 1017.8 hPa WNW 2.6 km/h 3.7 km/h 65 % 0 mm
00:22 -4.1 °C -9.7 °C 1017.8 hPa Calm   1.9 km/h 65 % 0 mm
00:27 -4.1 °C -9.5 °C 1017.8 hPa Calm     66 % 0 mm
00:32 -4.1 °C -9.7 °C 1017.8 hPa WNW 1.1 km/h 1.9 km/h 65 % 0 mm
00:37 -4.1 °C -9.5 °C 1017.8 hPa Calm   1.9 km/h 66 % 0 mm
00:42 -4.1 °C -9.7 °C 1017.8 hPa WNW 0.8 km/h 5.6 km/h 65 % 0 mm
00:47 -4.1 °C -9.7 °C 1018.2 hPa Calm     65 % 0 mm
00:53 -4.2 °C -9.6 °C 1017.8 hPa WNW 0.2 km/h 3.7 km/h 66 % 0 mm
00:58 -4.2 °C -9.6 °C 1017.8 hPa WNW 0.8 km/h 3.7 km/h 66 % 0 mm
01:03 -4.2 °C -9.6 °C 1017.8 hPa WNW 1.4 km/h 5.6 km/h 66 % 0 mm
01:09 -4.2 °C -9.6 °C 1018.2 hPa Calm   5.6 km/h 66 % 0 mm
01:14 -4.2 °C -9.6 °C 1018.2 hPa WNW 2.4 km/h 3.7 km/h 66 % 0 mm
01:19 -4.2 °C -9.6 °C 1017.8 hPa Calm     66 % 0 mm
01:24 -4.2 °C -9.4 °C 1018.2 hPa Calm     67 % 0 mm
01:29 -4.2 °C -9.4 °C 1018.2 hPa Calm     67 % 0 mm
01:34 -4.2 °C -9.2 °C 1018.2 hPa Calm     68 % 0 mm
01:39 -4.2 °C -9.2 °C 1018.2 hPa WNW 1.3 km/h 3.7 km/h 68 % 0 mm
01:44 -4.1 °C -9.3 °C 1018.2 hPa Calm     67 % 0 mm
01:49 -4.1 °C -9.5 °C 1018.2 hPa Calm     66 % 0 mm
01:54 -4.1 °C -9.5 °C 1018.2 hPa WNW 0.2 km/h   66 % 0 mm
01:59 -4.1 °C -9.3 °C 1017.8 hPa Calm     67 % 0 mm
02:05 -4 °C -9.1 °C 1018.2 hPa Calm     68 % 0 mm
02:10 -3.9 °C -9 °C 1018.2 hPa Calm     68 % 0 mm
02:15 -3.9 °C -9 °C 1017.8 hPa Calm     68 % 0 mm
02:20 -3.9 °C -8.9 °C 1017.8 hPa Calm     68 % 0 mm
02:25 -3.8 °C -8.7 °C 1017.8 hPa Calm     69 % 0 mm
02:30 -3.8 °C -8.7 °C 1017.8 hPa Calm     69 % 0 mm
02:35 -3.8 °C -8.4 °C 1017.8 hPa Calm     70 % 0 mm
02:40 -3.8 °C -8.3 °C 1017.5 hPa Calm     71 % 0 mm
02:45 -3.7 °C -8.1 °C 1017.8 hPa Calm     72 % 0 mm
02:50 -3.7 °C -8.1 °C 1017.5 hPa Calm     72 % 0 mm
02:55 -3.7 °C -8.1 °C 1017.8 hPa Calm     72 % 0 mm
03:00 -3.7 °C -8.1 °C 1017.5 hPa Calm     72 % 0 mm
03:05 -3.7 °C -8.1 °C 1017.2 hPa Calm     72 % 0 mm
03:10 -3.7 °C -8.1 °C 1017.2 hPa Calm     72 % 0 mm
03:15 -3.7 °C -8.1 °C 1017.2 hPa Calm     72 % 0 mm
03:20 -3.8 °C -8.1 °C 1017.5 hPa Calm     72 % 0 mm
03:25 -3.8 °C -7.9 °C 1017.2 hPa Calm     73 % 0 mm
03:31 -3.8 °C -8.1 °C 1017.5 hPa Calm     72 % 0 mm
03:36 -3.8 °C -7.9 °C 1017.5 hPa Calm     73 % 0 mm
03:41 -3.8 °C -7.9 °C 1017.5 hPa Calm     73 % 0 mm
03:46 -3.8 °C -7.9 °C 1017.8 hPa Calm     73 % 0 mm
03:51 -3.8 °C -7.9 °C 1017.8 hPa Calm     73 % 0 mm
03:56 -3.8 °C -7.8 °C 1017.8 hPa Calm     74 % 0 mm
04:01 -3.8 °C -7.8 °C 1017.8 hPa Calm     74 % 0 mm
04:06 -3.8 °C -7.8 °C 1017.8 hPa Calm     74 % 0 mm
04:11 -3.8 °C -7.8 °C 1017.8 hPa Calm     74 % 0 mm
04:16 -3.8 °C -7.8 °C 1017.8 hPa Calm     74 % 0 mm
04:21 -3.8 °C -7.6 °C 1017.8 hPa Calm     75 % 0 mm
04:26 -3.8 °C -7.6 °C 1017.8 hPa Calm     75 % 0 mm
04:31 -3.8 °C -7.6 °C 1017.8 hPa Calm     75 % 0 mm
04:37 -3.8 °C -7.6 °C 1017.8 hPa Calm   1.9 km/h 75 % 0 mm
04:42 -3.8 °C -7.6 °C 1017.8 hPa Calm     75 % 0 mm
04:47 -3.7 °C -7.5 °C 1017.8 hPa Calm     75 % 0 mm
04:52 -3.7 °C -7.5 °C 1018.2 hPa Calm     75 % 0 mm
04:57 -3.7 °C -7.4 °C 1018.2 hPa Calm     75 % 0 mm
05:02 -3.7 °C -7.4 °C 1017.8 hPa Calm     75 % 0 mm
05:07 -3.6 °C -7.8 °C 1017.8 hPa Calm     73 % 0 mm
05:12 -3.6 °C -7.7 °C 1017.8 hPa WNW 0.3 km/h 1.9 km/h 73 % 0 mm
05:17 -3.5 °C -7.7 °C 1017.8 hPa Calm     73 % 0 mm
05:22 -3.5 °C -7.8 °C 1017.8 hPa Calm     72 % 0 mm
05:27 -3.4 °C -7.8 °C 1018.2 hPa WNW 0.3 km/h 1.9 km/h 72 % 0 mm
05:32 -3.4 °C -7.8 °C 1017.8 hPa Calm     72 % 0 mm
05:37 -3.4 °C -7.9 °C 1017.8 hPa SW 1.4 km/h 3.7 km/h 71 % 0 mm
05:42 -3.3 °C -7.8 °C 1017.8 hPa Calm     71 % 0 mm
05:47 -3.3 °C -7.8 °C 1017.8 hPa SSE 3.9 km/h 5.6 km/h 71 % 0 mm
05:52 -3.3 °C -8 °C 1017.8 hPa SSE 1.8 km/h 5.6 km/h 70 % 0 mm
05:57 -3.3 °C -8 °C 1017.8 hPa SSE 1.6 km/h 4.8 km/h 70 % 0 mm
06:02 -3.3 °C -8 °C 1017.8 hPa SSE 1.6 km/h 9.3 km/h 70 % 0 mm
06:07 -3.3 °C -8.2 °C 1017.8 hPa Calm   1.9 km/h 69 % 0 mm
06:13 -3.3 °C -8.2 °C 1018.2 hPa SSE 3.2 km/h 5.6 km/h 69 % 0 mm
06:18 -3.3 °C -8.2 °C 1018.2 hPa SSE 3.2 km/h 4.8 km/h 69 % 0 mm
06:23 -3.3 °C -8.3 °C 1018.5 hPa SSE 3.2 km/h 5.6 km/h 68 % 0 mm
06:28 -3.2 °C -8.1 °C 1018.5 hPa SSE 0.8 km/h 5.6 km/h 69 % 0 mm
06:33 -3.2 °C -8.1 °C 1018.5 hPa SSE 6.1 km/h 9.3 km/h 69 % 0 mm
06:38 -3.2 °C -8.1 °C 1018.5 hPa SE 1.8 km/h 5.6 km/h 69 % 0 mm
06:43 -3.2 °C -8.1 °C 1018.8 hPa Calm     69 % 0 mm
06:48 -3.1 °C -8 °C 1018.8 hPa SE 0.5 km/h 1.9 km/h 69 % 0 mm
06:53 -3.1 °C -8.1 °C 1018.8 hPa Calm     68 % 0 mm
06:58 -3.1 °C -7.9 °C 1019.2 hPa Calm     69 % 0 mm
07:03 -3.1 °C -7.9 °C 1019.2 hPa Calm     69 % 0 mm
07:08 -3 °C -7.9 °C 1019.2 hPa Calm     69 % 0 mm
07:13 -3 °C -7.9 °C 1019.5 hPa Calm     69 % 0 mm
07:18 -3 °C -7.9 °C 1019.5 hPa Calm     69 % 0 mm
07:23 -3 °C -7.7 °C 1019.9 hPa Calm     70 % 0 mm
07:29 -2.9 °C -7.7 °C 1019.9 hPa Calm     70 % 0 mm
07:34 -2.9 °C -7.7 °C 1019.9 hPa Calm     70 % 0 mm
07:39 -2.9 °C -7.7 °C 1019.9 hPa Calm     70 % 0 mm
07:44 -2.9 °C -7.6 °C 1020.2 hPa Calm     70 % 0 mm
07:49 -2.8 °C -7.6 °C 1020.2 hPa Calm     70 % 0 mm
07:54 -2.8 °C -7.6 °C 1020.2 hPa Calm     70 % 0 mm
07:59 -2.8 °C -7.5 °C 1020.2 hPa Calm     70 % 0 mm
08:04 -2.7 °C -7.4 °C 1020.2 hPa Calm     70 % 0 mm
08:09 -2.7 °C -7.4 °C 1020.2 hPa Calm     70 % 0 mm
08:14 -2.6 °C -7.3 °C 1020.2 hPa Calm     70 % 0 mm
08:19 -2.5 °C -7.2 °C 1020.2 hPa Calm     70 % 0 mm
08:24 -2.5 °C -7.2 °C 1020.2 hPa Calm     70 % 0 mm
08:29 -2.4 °C -7.1 °C 1020.2 hPa Calm     70 % 0 mm
08:34 -2.3 °C -7.3 °C 1020.5 hPa Calm     69 % 0 mm
08:39 -2.2 °C -7.2 °C 1020.9 hPa Calm     69 % 0 mm
08:44 -2.2 °C -6.9 °C 1020.5 hPa Calm     70 % 0 mm
08:49 -2.1 °C -6.8 °C 1020.5 hPa Calm     70 % 0 mm
08:54 -2 °C -6.7 °C 1020.5 hPa Calm     70 % 0 mm
09:00 -1.9 °C -6.7 °C 1020.5 hPa Calm     70 % 0 mm
09:05 -1.9 °C -6.6 °C 1020.5 hPa SE 0.5 km/h 3.2 km/h 70 % 0 mm
09:10 -1.8 °C -6.8 °C 1020.2 hPa SE 0.3 km/h 1.9 km/h 69 % 0 mm
09:15 -1.8 °C -6.6 °C 1020.5 hPa Calm     70 % 0 mm
09:20 -1.7 °C -6.7 °C 1020.5 hPa SE 0.5 km/h 3.7 km/h 69 % 0 mm
09:25 -1.7 °C -6.6 °C 1020.5 hPa Calm     69 % 0 mm
09:30 -1.6 °C -6.6 °C 1020.9 hPa SE 0.8 km/h 3.7 km/h 69 % 0 mm
09:35 -1.6 °C -6.5 °C 1020.5 hPa Calm     69 % 0 mm
09:40 -1.5 °C -6.4 °C 1020.9 hPa Calm     69 % 0 mm
09:45 -1.4 °C -6.4 °C 1020.5 hPa Calm     69 % 0 mm
09:50 -1.4 °C -6.4 °C 1020.9 hPa Calm     69 % 0 mm
09:55 -1.3 °C -6.3 °C 1020.5 hPa Calm     69 % 0 mm
10:00 -1.3 °C -6.2 °C 1020.5 hPa Calm     69 % 0 mm
10:05 -1.2 °C -6.4 °C 1020.5 hPa SE 2.6 km/h 3.7 km/h 68 % 0 mm
10:10 -1.1 °C -6.1 °C 1020.5 hPa Calm     69 % 0 mm
10:15 -1.1 °C -6.2 °C 1020.5 hPa Calm     68 % 0 mm
10:20 -1 °C -6.2 °C 1020.5 hPa Calm   1.9 km/h 68 % 0 mm
10:25 -0.9 °C -6.1 °C 1020.5 hPa Calm   1.6 km/h 68 % 0 mm
10:30 -0.8 °C -6.2 °C 1020.5 hPa SE 0.2 km/h 3.7 km/h 67 % 0 mm
10:36 -0.8 °C -6.1 °C 1020.2 hPa Calm   3.2 km/h 67 % 0 mm
10:41 -0.6 °C -6 °C 1020.2 hPa Calm   3.2 km/h 67 % 0 mm
10:46 -0.5 °C -6.1 °C 1020.2 hPa Calm     66 % 0 mm
10:51 -0.3 °C -5.7 °C 1019.9 hPa SE 2.3 km/h 4.8 km/h 67 % 0 mm
10:56 -0.1 °C -5.7 °C 1019.9 hPa SE 1.6 km/h 4.8 km/h 66 % 0 mm
11:01 0.2 °C -5.2 °C 1019.9 hPa SW 1.8 km/h 5.6 km/h 67 % 0 mm
11:06 0.3 °C -5.5 °C 1019.9 hPa Calm   6.4 km/h 65 % 0 mm
11:11 0.5 °C -5.3 °C 1019.9 hPa Calm   1.6 km/h 65 % 0 mm
11:16 0.7 °C -5.4 °C 1019.9 hPa Calm   3.2 km/h 64 % 0 mm
11:21 0.8 °C -5.3 °C 1019.9 hPa Calm   1.6 km/h 64 % 0 mm
11:26 0.9 °C -5.4 °C 1019.9 hPa SSW 3.2 km/h 11.3 km/h 63 % 0 mm
11:31 1.1 °C -5.4 °C 1019.9 hPa Calm   6.4 km/h 62 % 0 mm
11:36 1.2 °C -5.1 °C 1019.9 hPa Calm   6.4 km/h 63 % 0 mm
11:40 1.3 °C -5.2 °C 1019.9 hPa SW 8 km/h 11.3 km/h 62 % 0 mm
11:45 1.6 °C -4.9 °C 1019.9 hPa Calm   11.3 km/h 62 % 0 mm
11:50 1.7 °C -5.3 °C 1019.5 hPa WSW 3.7 km/h 7.4 km/h 60 % 0 mm
11:56 1.8 °C -5.2 °C 1019.5 hPa Calm   6.4 km/h 60 % 0 mm
12:01 1.9 °C -4.8 °C 1019.5 hPa WSW 2.4 km/h 5.6 km/h 61 % 0 mm
12:06 2.1 °C -4.8 °C 1019.5 hPa WNW 6.1 km/h 9.3 km/h 60 % 0 mm
12:11 2.2 °C -4.2 °C 1019.5 hPa North 3.5 km/h 6.4 km/h 63 % 0 mm
12:16 2.2 °C -4.1 °C 1019.5 hPa NNW 2.7 km/h 8 km/h 63 % 0 mm
12:21 2.2 °C -3.9 °C 1019.2 hPa NNE 3.9 km/h 5.6 km/h 64 % 0 mm
12:26 2.2 °C -3.7 °C 1019.2 hPa NNE 4.2 km/h 5.6 km/h 65 % 0 mm
12:31 2.2 °C -3.7 °C 1019.2 hPa NNE 9.2 km/h 13 km/h 65 % 0 mm
12:36 2.2 °C -3.6 °C 1018.8 hPa NNE 2.4 km/h 3.7 km/h 66 % 0 mm
12:41 2.3 °C -3.6 °C 1018.8 hPa NNE 8.4 km/h 11.1 km/h 65 % 0 mm
12:46 2.3 °C -3.4 °C 1018.8 hPa ENE 4 km/h 5.6 km/h 66 % 0 mm
12:51 2.3 °C -3.4 °C 1018.8 hPa NNE 8.2 km/h 11.3 km/h 66 % 0 mm
12:56 2.3 °C -3.6 °C 1018.5 hPa NE 7.6 km/h 11.1 km/h 65 % 0 mm
13:01 2.4 °C -3.5 °C 1018.5 hPa NE 3.9 km/h 9.3 km/h 65 % 0 mm
13:06 2.5 °C -3.4 °C 1018.5 hPa NNE 10.3 km/h 14.8 km/h 65 % 0 mm
13:11 2.5 °C -3.4 °C 1018.8 hPa North 5.3 km/h 8 km/h 65 % 0 mm
13:16 2.7 °C -3.4 °C 1018.5 hPa North 4.7 km/h 7.4 km/h 64 % 0 mm
13:22 2.8 °C -3.5 °C 1018.5 hPa NNE 4.7 km/h 11.1 km/h 63 % 0 mm
13:27 2.9 °C -3.6 °C 1018.5 hPa North 6 km/h 11.3 km/h 62 % 0 mm
13:32 3 °C -3.2 °C 1018.5 hPa NNE 2.3 km/h 7.4 km/h 64 % 0 mm
13:37 3.1 °C -3.1 °C 1018.5 hPa NE 5 km/h 7.4 km/h 64 % 0 mm
13:42 3.3 °C -3.1 °C 1018.5 hPa NNE 5.6 km/h 7.4 km/h 63 % 0 mm
13:47 3.3 °C -3.6 °C 1018.5 hPa NE 7.7 km/h 11.1 km/h 61 % 0 mm
13:52 3.1 °C -3.7 °C 1018.5 hPa NE 3.2 km/h 5.6 km/h 61 % 0 mm
13:57 2.9 °C -3.7 °C 1018.5 hPa NE 1.9 km/h 5.6 km/h 62 % 0 mm
14:02 2.7 °C -3.9 °C 1018.8 hPa NE 3.1 km/h 5.6 km/h 62 % 0 mm
14:07 2.3 °C -4.2 °C 1018.8 hPa NE 2.6 km/h 5.6 km/h 62 % 0 mm
14:12 2.2 °C -3.9 °C 1018.8 hPa NNE 0.6 km/h 3.7 km/h 64 % 0 mm
14:17 2.1 °C -4.1 °C 1018.8 hPa ENE 2.4 km/h 5.6 km/h 64 % 0 mm
14:22 1.9 °C -4.2 °C 1018.8 hPa NE 3.5 km/h 5.6 km/h 64 % 0 mm
14:27 1.8 °C -4.3 °C 1018.8 hPa ENE 2.1 km/h 5.6 km/h 64 % 0 mm
14:32 1.6 °C -4.1 °C 1018.8 hPa ENE 1.1 km/h 3.7 km/h 66 % 0 mm
14:38 1.6 °C -4.1 °C 1018.8 hPa ENE 0.2 km/h 3.7 km/h 66 % 0 mm
14:43 1.5 °C -4.2 °C 1018.8 hPa NE 2.1 km/h 5.6 km/h 66 % 0 mm
14:48 1.4 °C -4.2 °C 1018.5 hPa ENE 2.9 km/h 5.6 km/h 66 % 0 mm
14:53 1.3 °C -4.3 °C 1018.5 hPa NE 5 km/h 5.6 km/h 66 % 0 mm
14:58 1.2 °C -4.3 °C 1018.5 hPa ENE 3.2 km/h 5.6 km/h 67 % 0 mm
15:03 1.1 °C -4.3 °C 1018.5 hPa ENE 2.9 km/h 5.6 km/h 67 % 0 mm
15:08 1.1 °C -4.2 °C 1018.8 hPa ENE 0.2 km/h 5.6 km/h 68 % 0 mm
15:13 1.1 °C -4.2 °C 1018.8 hPa ENE 1.6 km/h 5.6 km/h 68 % 0 mm
15:16 1.1 °C -4 °C 1018.8 hPa ENE 0.8 km/h 3.7 km/h 69 % 0 mm
15:21 1.2 °C -3.9 °C 1018.8 hPa NE 2.4 km/h 5.6 km/h 69 % 0 mm
15:26 1.2 °C -3.9 °C 1018.8 hPa ENE 0.8 km/h 5.6 km/h 69 % 0 mm
15:31 1.2 °C -3.9 °C 1019.2 hPa ENE 3.5 km/h 5.6 km/h 69 % 0 mm
15:36 1.2 °C -3.9 °C 1018.8 hPa ENE 1.8 km/h 3.7 km/h 69 % 0 mm
15:41 1.2 °C -3.9 °C 1019.2 hPa ENE 2.3 km/h 5.6 km/h 69 % 0 mm
15:46 1.1 °C -3.8 °C 1019.2 hPa ENE 0.8 km/h 4.8 km/h 70 % 0 mm
15:52 1.1 °C -3.8 °C 1019.2 hPa ENE 2.3 km/h 3.7 km/h 70 % 0 mm
15:57 1.1 °C -3.8 °C 1019.2 hPa ENE 2.3 km/h 3.7 km/h 70 % 0 mm
16:02 1.1 °C -3.6 °C 1019.5 hPa ENE 1.4 km/h 3.7 km/h 71 % 0 mm
16:07 1.1 °C -3.6 °C 1019.2 hPa ENE 2.1 km/h 3.7 km/h 71 % 0 mm
16:12 1 °C -3.7 °C 1019.5 hPa ENE 0.8 km/h 3.7 km/h 71 % 0 mm
16:17 1 °C -3.7 °C 1019.9 hPa Calm   1.9 km/h 71 % 0 mm
16:22 0.9 °C -3.9 °C 1019.5 hPa Calm     70 % 0 mm
16:27 0.9 °C -3.9 °C 1019.9 hPa Calm     70 % 0 mm
16:32 0.9 °C -3.7 °C 1019.9 hPa Calm     71 % 0 mm
16:37 0.9 °C -3.8 °C 1019.9 hPa Calm     71 % 0 mm
16:42 0.9 °C -3.9 °C 1020.2 hPa Calm     70 % 0 mm
16:47 0.9 °C -3.8 °C 1020.2 hPa Calm     71 % 0 mm
16:52 0.8 °C -3.8 °C 1020.5 hPa Calm     71 % 0 mm
16:57 0.8 °C -4 °C 1020.5 hPa Calm     70 % 0 mm
17:02 0.8 °C -3.8 °C 1020.5 hPa Calm     71 % 0 mm
17:07 0.8 °C -3.9 °C 1020.5 hPa Calm     71 % 0 mm
17:13 0.7 °C -3.8 °C 1020.5 hPa Calm     72 % 0 mm
17:18 0.7 °C -3.8 °C 1020.2 hPa Calm     72 % 0 mm
17:23 0.6 °C -3.8 °C 1020.5 hPa Calm     72 % 0 mm
17:28 0.6 °C -3.9 °C 1020.5 hPa Calm     72 % 0 mm
17:33 0.4 °C -4 °C 1020.5 hPa Calm     72 % 0 mm
17:38 0.4 °C -4.1 °C 1020.9 hPa Calm     72 % 0 mm
17:43 0.3 °C -4.2 °C 1020.9 hPa Calm     72 % 0 mm
17:48 0.2 °C -4.2 °C 1020.9 hPa Calm     72 % 0 mm
17:53 0.1 °C -4.2 °C 1020.9 hPa Calm     73 % 0 mm
17:58 0 °C -4.3 °C 1020.9 hPa Calm     73 % 0 mm
18:03 -0.1 °C -4.4 °C 1021.2 hPa Calm     73 % 0 mm
18:08 -0.2 °C -4.2 °C 1021.6 hPa Calm     74 % 0 mm
18:13 -0.3 °C -4.3 °C 1021.6 hPa Calm     74 % 0 mm
18:18 -0.4 °C -4.3 °C 1021.6 hPa ENE 0.5 km/h 1.9 km/h 75 % 0 mm
18:23 -0.5 °C -4.2 °C 1021.6 hPa Calm     76 % 0 mm
18:28 -0.6 °C -4.3 °C 1021.9 hPa Calm     76 % 0 mm
18:33 -0.7 °C -4.3 °C 1021.9 hPa Calm     77 % 0 mm
18:39 -0.8 °C -4.4 °C 1021.9 hPa Calm     77 % 0 mm
18:44 -0.9 °C -4.4 °C 1021.9 hPa Calm     77 % 0 mm
18:49 -1.1 °C -4.4 °C 1021.9 hPa Calm     78 % 0 mm
18:54 -1.1 °C -4.4 °C 1022.2 hPa Calm     78 % 0 mm
18:59 -1.2 °C -4.5 °C 1022.2 hPa Calm     78 % 0 mm
19:04 -1.3 °C -4.4 °C 1022.2 hPa Calm     79 % 0 mm
19:09 -1.4 °C -4.6 °C 1022.2 hPa Calm     79 % 0 mm
19:14 -1.4 °C -4.6 °C 1022.2 hPa Calm     79 % 0 mm
19:19 -1.6 °C -4.7 °C 1022.2 hPa ENE 1.6 km/h 3.7 km/h 79 % 0 mm
19:24 -1.6 °C -4.6 °C 1022.6 hPa Calm     80 % 0 mm
19:29 -1.7 °C -4.7 °C 1022.6 hPa Calm     80 % 0 mm
19:34 -1.8 °C -4.9 °C 1022.6 hPa Calm     79 % 0 mm
19:39 -1.8 °C -5 °C 1022.9 hPa Calm     79 % 0 mm
19:44 -1.9 °C -4.9 °C 1022.9 hPa Calm     80 % 0 mm
19:49 -1.9 °C -4.9 °C 1022.9 hPa Calm     80 % 0 mm
19:54 -2 °C -4.8 °C 1023.2 hPa Calm     81 % 0 mm
20:00 -2.1 °C -4.9 °C 1023.2 hPa Calm     81 % 0 mm
20:05 -2.2 °C -5 °C 1023.2 hPa Calm     81 % 0 mm
20:10 -2.2 °C -4.8 °C 1023.6 hPa Calm   1.9 km/h 82 % 0 mm
20:15 -2.2 °C -4.9 °C 1023.6 hPa Calm     82 % 0 mm
20:20 -2.3 °C -4.8 °C 1023.6 hPa ENE 1.4 km/h 3.7 km/h 83 % 0 mm
20:25 -2.3 °C -4.8 °C 1023.9 hPa Calm     83 % 0 mm
20:30 -2.3 °C -4.8 °C 1023.9 hPa Calm     83 % 0 mm
20:35 -2.3 °C -4.8 °C 1023.9 hPa Calm     83 % 0 mm
20:40 -2.4 °C -4.9 °C 1023.9 hPa Calm     83 % 0 mm
20:45 -2.4 °C -4.9 °C 1023.9 hPa Calm     83 % 0 mm
20:50 -2.4 °C -4.9 °C 1023.9 hPa Calm     83 % 0 mm
20:55 -2.5 °C -5 °C 1023.9 hPa Calm     83 % 0 mm
21:00 -2.6 °C -5.1 °C 1023.9 hPa Calm     83 % 0 mm
21:05 -2.6 °C -5.1 °C 1023.9 hPa Calm     83 % 0 mm
21:10 -2.6 °C -5.1 °C 1023.9 hPa Calm     83 % 0 mm
21:15 -2.7 °C -5.2 °C 1023.9 hPa Calm     83 % 0 mm
21:21 -2.7 °C -5.2 °C 1023.9 hPa Calm     83 % 0 mm
21:26 -2.8 °C -5.1 °C 1023.9 hPa Calm     84 % 0 mm
21:31 -2.8 °C -5.1 °C 1023.9 hPa Calm     84 % 0 mm
21:36 -2.8 °C -5.2 °C 1023.9 hPa Calm     84 % 0 mm
21:41 -2.9 °C -5.2 °C 1023.9 hPa Calm     84 % 0 mm
21:46 -2.9 °C -5.1 °C 1023.9 hPa Calm     85 % 0 mm
21:51 -3 °C -5.2 °C 1023.9 hPa Calm     85 % 0 mm
21:56 -3.1 °C -5.2 °C 1023.9 hPa Calm     85 % 0 mm
22:01 -3.1 °C -5.2 °C 1023.9 hPa Calm     85 % 0 mm
22:06 -3.1 °C -5.3 °C 1023.9 hPa Calm     85 % 0 mm
22:11 -3.2 °C -5.3 °C 1023.9 hPa Calm     85 % 0 mm
22:16 -3.2 °C -5.2 °C 1024.3 hPa Calm     86 % 0 mm
22:21 -3.2 °C -5.2 °C 1024.3 hPa Calm     86 % 0 mm
22:26 -3.2 °C -5.2 °C 1024.3 hPa Calm   1.9 km/h 86 % 0 mm
22:31 -3.2 °C -5.2 °C 1024.3 hPa Calm     86 % 0 mm
22:36 -3.2 °C -5 °C 1023.9 hPa Calm     87 % 0 mm
22:41 -3.2 °C -5 °C 1023.9 hPa Calm     87 % 0 mm
22:46 -3.2 °C -5 °C 1023.9 hPa Calm     87 % 0 mm
22:51 -3.2 °C -5 °C 1023.6 hPa Calm     87 % 0 mm
22:56 -3.2 °C -5 °C 1023.9 hPa Calm     87 % 0 mm
23:01 -3.2 °C -5 °C 1023.9 hPa Calm     87 % 0 mm
23:06 -3.2 °C -5 °C 1024.3 hPa Calm     87 % 0 mm
23:11 -3.2 °C -4.9 °C 1024.3 hPa ENE 0.5 km/h 1.9 km/h 88 % 0 mm
23:16 -3.2 °C -4.9 °C 1024.3 hPa Calm   1.9 km/h 88 % 0 mm
23:21 -3.1 °C -4.8 °C 1024.6 hPa Calm     88 % 0 mm
23:26 -3.1 °C -4.8 °C 1024.3 hPa East 2.1 km/h 3.2 km/h 88 % 0 mm
23:32 -3.1 °C -4.8 °C 1024.3 hPa East 0.6 km/h 3.2 km/h 88 % 0 mm
23:37 -3.1 °C -4.8 °C 1024.3 hPa East 0.3 km/h 1.6 km/h 88 % 0 mm
23:42 -3 °C -4.7 °C 1024.6 hPa Calm     88 % 0 mm
23:47 -2.9 °C -4.7 °C 1024.3 hPa Calm     88 % 0 mm
23:52 -2.9 °C -4.7 °C 1024.3 hPa East 0.2 km/h 1.9 km/h 88 % 0 mm
23:57 -2.9 °C -4.7 °C 1024.3 hPa Calm     88 % 0 mm
Crab Meadow Weather
Compliments of Weather Underground - 3 mb

Script developed by  Jim McMurry - jmcmurry@mwt.net Adapted for the template by  Wim van der Kuil - Leuven-Template.eu

Astronomy: Water covers 71% of Earth.